Home > Time Zones > World Clock > Weather > Macau > Macau > Past weeks

Flag for Macau Weather past 2 weeks in Macau, Macau

Now
88 °F

Passing clouds.


Feels Like: 100 °F
Forecast: 80 / 89 °F
Wind: 3 mph from North

Location: Taipa

Current Time: Jul 29, 2014 at 9:45:55 AM

Latest Report: Jul 29, 2014 at 9:00 AM


Visibility: N/A

Pressure: 29.71 "Hg

Humidity: 70%

Dew point: 77 °F

Location of MacauLocation

Historic Weather in Macau — Graph

°F

Macau temperature yesterday

Maximum temperature yesterday: 88 °F (at 11:00 AM)
Minimum temperature yesterday: 82 °F (at 5:00 AM)
Average temperature yesterday: 85 °F

Past Weeks' High & Low Weather Summary

 TemperatureHumidityPressure
High93 °F (Jul 22, 12:30 PM)100% (Jul 17, 6:00 PM)29.83 "Hg (Jul 17, 6:00 PM)
Low77 °F (Jul 26, 11:51 PM)56% (Jul 22, 12:30 PM)29.45 "Hg (Jul 23, 5:00 PM)
Average85 °F80%29.69 "Hg
* Reported Jul 14 9:00 AM — Jul 29 9:00 AM, Macau, Weather by CustomWeather, © 2014

Note: Actual official high and low records may vary slightly from our data, if they occured in-between our weather recording intervals... More about our weather records

Advertising

Macau weather history for previous 24 hours

 ConditionsComfort  
Time TempWeatherWind HumidityBarometerVisibility
9:00 AM
Jul 29
88 °FPassing clouds.3 mph70%29.71 "HgN/A
8:00 AM86 °FPassing clouds.2 mph75%29.71 "HgN/A
7:30 AM84 °FPassing clouds.2 mph79%29.68 "HgN/A
7:00 AM84 °FScattered clouds.2 mph79%29.68 "HgN/A
6:30 AM82 °FScattered clouds.3 mph84%29.68 "HgN/A
6:00 AM82 °FScattered clouds.3 mph84%29.65 "HgN/A
4:30 AM82 °FPassing clouds.3 mph84%29.65 "HgN/A
4:00 AM82 °FPassing clouds.6 mph84%29.65 "HgN/A
3:30 AM82 °FPassing clouds.6 mph84%29.65 "HgN/A
3:00 AM82 °FPassing clouds.7 mph84%29.65 "HgN/A
2:30 AM82 °FPassing clouds.7 mph84%29.65 "HgN/A
2:00 AM82 °FPassing clouds.6 mph79%29.65 "HgN/A
1:30 AM82 °FPassing clouds.6 mph84%29.65 "HgN/A
1:00 AM82 °FPassing clouds.7 mph79%29.65 "HgN/A
12:30 AM82 °FPassing clouds.6 mph79%29.68 "HgN/A
12:00 AM84 °FPassing clouds.5 mph74%29.68 "HgN/A
11:30 PM
Jul 28
84 °FPassing clouds.8 mph74%29.68 "HgN/A
11:00 PM84 °FPassing clouds.8 mph74%29.68 "HgN/A
10:30 PM84 °FPassing clouds.6 mph74%29.68 "HgN/A
10:00 PM84 °FPassing clouds.6 mph74%29.68 "HgN/A
9:30 PM84 °FPassing clouds.6 mph74%29.71 "HgN/A
9:00 PM84 °FClear.6 mph74%29.68 "Hg10 mi
8:30 PM84 °FClear.8 mph79%29.68 "Hg10 mi
8:00 PM84 °FClear.8 mph74%29.68 "Hg10 mi
7:30 PM84 °FClear.7 mph74%29.65 "Hg10 mi
7:00 PM84 °FSunny.7 mph79%29.65 "Hg10 mi
6:30 PM86 °FSunny.6 mph75%29.62 "Hg10 mi
6:00 PM86 °FSunny.7 mph75%29.62 "Hg10 mi
5:30 PM88 °FPassing clouds.7 mph66%29.62 "HgN/A
5:00 PM88 °FPassing clouds.8 mph66%29.62 "HgN/A
4:30 PM88 °FPassing clouds.8 mph70%29.65 "HgN/A
4:00 PM88 °FPassing clouds.8 mph70%29.65 "HgN/A
3:30 PM88 °FPassing clouds.6 mph70%29.65 "HgN/A
3:00 PM88 °FPassing clouds.6 mph70%29.68 "HgN/A
2:30 PM88 °FPassing clouds.5 mph70%29.68 "HgN/A
2:00 PM88 °FPassing clouds.5 mph70%29.71 "HgN/A
1:30 PM88 °FPassing clouds.3 mph70%29.71 "HgN/A
1:00 PM88 °FPassing clouds.7 mph70%29.71 "HgN/A
12:30 PM88 °FPassing clouds.7 mph70%29.71 "HgN/A
12:00 PM88 °FPassing clouds.7 mph70%29.74 "HgN/A
11:30 AM88 °FPassing clouds.7 mph75%29.74 "HgN/A
11:00 AM88 °FScattered clouds.7 mph70%29.74 "HgN/A
10:30 AM86 °FPassing clouds.8 mph75%29.74 "HgN/A
10:00 AM86 °FPassing clouds.8 mph79%29.74 "HgN/A
9:30 AM86 °FPassing clouds.8 mph79%29.74 "HgN/A
9:00 AM86 °FPassing clouds.8 mph79%29.74 "HgN/A
Weather by CustomWeather, © 2014

See weather overviewHow to use our weather pages